N962TU KBHM-KBHM

Flight info

Callsign N962TU
Flight time 0h 2m
Altitude VFR
Route PATTERN
Aircraft C172/L-DOV/C

Departure

Time 2026-04-25 01:34
Airport Birmingham-Shuttlesworth International Airport (KBHM)

Arrival

Time 2026-04-25 01:36
Airport Birmingham-Shuttlesworth International Airport (KBHM)
Time Latitude Longitude Altitude Speed Heading
2026-04-25 01:15 33.56588 -86.74274 628 ft 0 kts
2026-04-25 01:26 33.56590 -86.74297 632 ft 12 kts 233°
2026-04-25 01:26 33.56578 -86.74322 627 ft 0 kts 248°
2026-04-25 01:27 33.56602 -86.74355 630 ft 21 kts 318°
2026-04-25 01:27 33.56651 -86.74507 623 ft 0 kts 130°
2026-04-25 01:28 33.56588 -86.74274 628 ft 0 kts
2026-04-25 01:30 33.56593 -86.74288 628 ft 8 kts 244°
2026-04-25 01:30 33.56590 -86.74340 627 ft 7 kts 314°
2026-04-25 01:30 33.56630 -86.74381 627 ft 11 kts 318°
2026-04-25 01:30 33.56642 -86.74470 625 ft 14 kts 269°
2026-04-25 01:31 33.56674 -86.74587 625 ft 13 kts 356°
2026-04-25 01:31 33.56752 -86.74584 628 ft 12 kts 11°
2026-04-25 01:31 33.56829 -86.74463 631 ft 24 kts 53°
2026-04-25 01:31 33.56937 -86.74385 628 ft 17 kts 331°
2026-04-25 01:32 33.57034 -86.74457 632 ft 22 kts 326°
2026-04-25 01:32 33.57180 -86.74573 634 ft 22 kts 326°
2026-04-25 01:32 33.57264 -86.74635 637 ft 0 kts 326°
2026-04-25 01:32 33.57274 -86.74644 637 ft 14 kts 320°
2026-04-25 01:33 33.57251 -86.74720 636 ft 20 kts 180°
2026-04-25 01:33 33.56940 -86.74723 640 ft 64 kts 180°
2026-04-25 01:33 33.56430 -86.74725 710 ft 82 kts 181°
2026-04-25 01:33 33.55891 -86.74717 960 ft 77 kts 178°
2026-04-25 01:34 33.55358 -86.74692 1200 ft 75 kts 183°
2026-04-25 01:34 33.55125 -86.75294 1215 ft 103 kts 267°
2026-04-25 01:34 33.55447 -86.75973 1242 ft 121 kts 353°
2026-04-25 01:34 33.56282 -86.76018 1399 ft 119 kts 356°
2026-04-25 01:35 33.57054 -86.76076 1695 ft 104 kts 354°
2026-04-25 01:35 33.57794 -86.76132 1816 ft 105 kts 352°
2026-04-25 01:35 33.58461 -86.76139 1756 ft 91 kts 21°
2026-04-25 01:35 33.58630 -86.75433 1444 ft 98 kts 98°
2026-04-25 01:36 33.58281 -86.74825 1208 ft 94 kts 158°
2026-04-25 01:36 33.57608 -86.74723 833 ft 97 kts 179°
2026-04-25 01:36 33.56997 -86.74723 635 ft 77 kts 179°
2026-04-25 01:36 33.56642 -86.74724 626 ft 25 kts 179°
2026-04-25 01:37 33.56596 -86.74722 624 ft 0 kts 180°
2026-04-25 01:37 33.56529 -86.74723 625 ft 32 kts 180°
2026-04-25 01:37 33.56142 -86.74726 635 ft 71 kts 180°
2026-04-25 01:37 33.55691 -86.74848 861 ft 68 kts 249°
2026-04-25 01:38 33.55721 -86.75526 942 ft 84 kts 267°
2026-04-25 01:38 33.55836 -86.76179 1120 ft 96 kts 319°
2026-04-25 01:38 33.56534 -86.76160 1200 ft 108 kts 14°
2026-04-25 01:38 33.57270 -86.76021 1356 ft 107 kts
2026-04-25 01:39 33.57955 -86.75961 1160 ft 96 kts
2026-04-25 01:39 33.58186 -86.75355 1031 ft 103 kts 91°
2026-04-25 01:39 33.57802 -86.74755 936 ft 112 kts 167°
2026-04-25 01:39 33.56967 -86.74728 654 ft 110 kts 180°
2026-04-25 01:40 33.56321 -86.74730 640 ft 84 kts 179°
2026-04-25 01:40 33.55729 -86.74710 823 ft 83 kts 182°
2026-04-25 01:40 33.55208 -86.74853 1073 ft 82 kts 224°
2026-04-25 01:40 33.55132 -86.75555 1219 ft 94 kts 275°
2026-04-25 01:41 33.55291 -86.76249 1397 ft 97 kts 334°
2026-04-25 01:41 33.56066 -86.76316 1335 ft 117 kts 358°
2026-04-25 01:41 33.56853 -86.76380 1476 ft 113 kts 353°
2026-04-25 01:41 33.57434 -86.75946 1342 ft 103 kts 84°
2026-04-25 01:42 33.57457 -86.75154 848 ft 86 kts 97°
2026-04-25 01:42 33.57190 -86.74724 647 ft 61 kts 175°
2026-04-25 01:42 33.56886 -86.74723 629 ft 28 kts 178°
2026-04-25 01:42 33.56745 -86.74702 630 ft 15 kts 173°
2026-04-25 01:43 33.56735 -86.74630 628 ft 8 kts 58°
2026-04-25 01:43 33.56701 -86.74592 626 ft 9 kts 175°
2026-04-25 01:43 33.56639 -86.74545 624 ft 19 kts 90°
2026-04-25 01:43 33.56636 -86.74397 626 ft 12 kts 117°
2026-04-25 01:44 33.56601 -86.74352 627 ft 2 kts 25°
2026-04-25 01:44 33.56603 -86.74352 635 ft 1 kts 345°
2026-04-25 01:44 33.56607 -86.74354 635 ft 0 kts 322°